Wind from 350

Air temperature 11.1° C
Dewpoint 9.4° C

Last reported at 2014-Apr-20 07:04 UTC.
Time now 2014-Apr-20 09:00 UTC

Location: N 42°07' E 003°08'.
View on Google Maps.

See reports from other nearby stations

Tides Stations Pressure Air Temp Water Temp Dewpoint Dewpoint depression Visibility Wind Speed Wind Dir Waves Ship positions

  
sailing weather and tide predictions

DW8835 La Escala ES weather

date/time (UTC)wind fromknots sea level pressurealtimeterstation pressurevisibilityair tempwater tempwave heightnotes
2014-Apr-20 07:04 350 11.1
2014-Apr-20 06:54 350 11.1
2014-Apr-20 06:44 350 11.1
2014-Apr-20 06:33 351 1 gusting 3 11.1
2014-Apr-20 06:24 351 2 gusting 4 11.7
2014-Apr-20 06:14 348 1 gusting 4 11.7
2014-Apr-20 06:04 336 2 gusting 3 11.7
2014-Apr-20 05:53 337 1 gusting 3 11.7
2014-Apr-20 05:44 338 1 gusting 4 11.7
2014-Apr-20 05:34 350 2 gusting 3 11.7
2014-Apr-20 05:25 355 1 gusting 2 11.7
2014-Apr-20 05:15 355 0 gusting 1 11.7
2014-Apr-20 05:05 355 11.7
2014-Apr-20 04:54 355 11.7
2014-Apr-20 04:45 355 11.7
2014-Apr-20 04:35 355 11.7
2014-Apr-20 04:24 336 1 gusting 2 12.2
2014-Apr-20 04:15 265 0 gusting 1 12.2
2014-Apr-20 04:04 177 1 gusting 2 12.2
2014-Apr-20 03:54 170 12.2
2014-Apr-20 03:45 170 12.2
2014-Apr-20 03:35 170 12.8
2014-Apr-20 03:24 169 0 gusting 3 12.8
2014-Apr-20 03:14 175 1 gusting 3 12.8
2014-Apr-20 03:05 183 0 gusting 4 13.3
2014-Apr-20 02:55 163 13.3
2014-Apr-20 02:44 161 1 gusting 2 13.3
2014-Apr-20 02:34 159 13.3
2014-Apr-20 02:24 160 1 gusting 3 13.3
2014-Apr-20 02:15 170 1 gusting 2 13.3
2014-Apr-20 02:05 170 0 gusting 2 13.3
2014-Apr-20 01:55 170 1 gusting 3 13.3
2014-Apr-20 01:45 209 1 gusting 3 13.3
2014-Apr-20 01:35 209 0 gusting 2 13.3
2014-Apr-20 01:24 209 2 gusting 5 13.3
2014-Apr-20 01:15 176 1 gusting 4 13.3
2014-Apr-20 01:05 157 1 gusting 6 13.3
2014-Apr-20 00:55 189 2 gusting 5 13.3
2014-Apr-20 00:45 158 2 gusting 6 13.9
2014-Apr-20 00:35 189 2 gusting 6 13.9
2014-Apr-20 00:25 182 3 gusting 6 13.9
2014-Apr-20 00:14 200 6 gusting 8 13.9
2014-Apr-20 00:05 177 4 gusting 6 13.9
2014-Apr-19 23:55 178 3 gusting 6 13.9
2014-Apr-19 23:44 183 3 gusting 6 13.9
2014-Apr-19 23:34 196 1 gusting 5 13.9
2014-Apr-19 23:24 184 3 gusting 6 13.9
2014-Apr-19 23:15 203 1 gusting 4 13.9
2014-Apr-19 23:04 176 13.9
2014-Apr-19 22:55 170 2 gusting 4 13.9
2014-Apr-19 22:44 178 1 gusting 5 13.9
2014-Apr-19 22:35 204 1 gusting 3 13.9
2014-Apr-19 22:24 204 0 gusting 5 13.9
2014-Apr-19 22:14 225 0 gusting 3 13.9
2014-Apr-19 22:05 210 1 gusting 3 13.9
2014-Apr-19 21:54 231 13.9
2014-Apr-19 21:44 232 1 gusting 3 13.9
2014-Apr-19 21:35 211 2 gusting 3 13.9
2014-Apr-19 21:24 249 1 gusting 4 13.9
2014-Apr-19 21:15 221 2 gusting 4 13.9
2014-Apr-19 21:04 198 0 gusting 5 14.4
2014-Apr-19 20:55 205 3 gusting 6 14.4
2014-Apr-19 20:44 229 3 gusting 5 14.4
2014-Apr-19 20:34 228 2 gusting 5 14.4
2014-Apr-19 20:25 274 2 gusting 3 15.0
2014-Apr-19 20:14 275 0 gusting 2 15.0
2014-Apr-19 20:04 275 0 gusting 4 15.0
2014-Apr-19 19:55 272 2 gusting 5 15.0
2014-Apr-19 19:44 300 3 gusting 4 15.0
2014-Apr-19 19:35 214 3 gusting 5 15.0
2014-Apr-19 19:24 203 2 gusting 5 15.6
2014-Apr-19 19:14 211 1 gusting 4 15.6
2014-Apr-19 19:04 203 1 gusting 6 15.6
2014-Apr-19 18:55 192 2 gusting 4 15.6
2014-Apr-19 18:44 009 15.6
2014-Apr-19 18:34 009 15.6
2014-Apr-19 18:14 009 0 gusting 2 15.6
2014-Apr-19 18:04 005 2 gusting 5 15.6
2014-Apr-19 17:54 355 3 gusting 5 15.6
2014-Apr-19 17:44 293 1 gusting 3 16.1
2014-Apr-19 17:35 251 2 gusting 4 16.1
2014-Apr-19 17:24 247 3 gusting 4 16.1
2014-Apr-19 17:15 339 2 gusting 3 16.1
2014-Apr-19 17:05 344 2 gusting 3 16.1
2014-Apr-19 16:55 345 1 gusting 3 16.1
2014-Apr-19 16:44 360 2 gusting 6 16.1
2014-Apr-19 16:35 321 2 gusting 5 16.7
2014-Apr-19 16:24 028 1 gusting 6 16.7
2014-Apr-19 16:14 070 1 gusting 4 16.7
2014-Apr-19 16:05 331 3 gusting 5 16.7
2014-Apr-19 15:55 130 0 gusting 4 16.7
2014-Apr-19 15:45 159 1 gusting 6 16.1
2014-Apr-19 15:34 159 4 gusting 6 16.7
2014-Apr-19 15:24 110 0 gusting 3 16.7
2014-Apr-19 15:15 100 2 gusting 5 16.7
2014-Apr-19 15:04 119 2 gusting 6 16.7
2014-Apr-19 14:54 123 2 gusting 6 16.7
2014-Apr-19 14:44 097 2 gusting 5 16.7
2014-Apr-19 14:34 109 0 gusting 7 16.7
2014-Apr-19 14:24 137 1 gusting 4 16.7
2014-Apr-19 14:14 146 2 gusting 7 16.7
2014-Apr-19 14:04 099 2 gusting 7 16.7
2014-Apr-19 13:55 079 2 gusting 7 16.7
2014-Apr-19 13:44 059 2 gusting 7 16.7
2014-Apr-19 13:34 227 2 gusting 6 17.2
2014-Apr-19 13:24 132 2 gusting 8 17.2
2014-Apr-19 13:14 069 3 gusting 9 17.2
2014-Apr-19 13:04 046 1 gusting 9 17.2
2014-Apr-19 12:54 062 3 gusting 7 17.2
2014-Apr-19 12:44 033 2 gusting 7 17.2
2014-Apr-19 12:34 069 3 gusting 10 17.2
2014-Apr-19 12:24 030 3 gusting 12 17.2
2014-Apr-19 12:15 012 6 gusting 9 17.2
2014-Apr-19 12:04 073 6 gusting 10 17.2
2014-Apr-19 11:54 059 2 gusting 10 17.8
2014-Apr-19 11:44 088 4 gusting 12 17.8
2014-Apr-19 11:34 039 4 gusting 13 17.8
2014-Apr-19 11:24 072 4 gusting 11 17.8
2014-Apr-19 11:14 059 4 gusting 9 17.2
2014-Apr-19 11:04 047 4 gusting 9 17.8
2014-Apr-19 10:54 044 2 gusting 7 17.2
2014-Apr-19 10:44 069 3 gusting 9 17.8
2014-Apr-19 10:34 048 5 gusting 10 17.2
2014-Apr-19 10:24 038 6 gusting 10 17.8
2014-Apr-19 10:14 022 6 gusting 15 18.3
2014-Apr-19 10:04 311 6 gusting 14 18.3
2014-Apr-19 09:54 028 6 gusting 15 18.3
2014-Apr-19 09:44 325 6 gusting 15 18.3
2014-Apr-19 09:34 348 6 gusting 11 17.8
2014-Apr-19 09:24 017 5 gusting 13 17.8
2014-Apr-19 09:14 338 6 gusting 12 17.2
2014-Apr-19 09:04 327 6 gusting 12 17.8
2014-Apr-19 08:54 269 6 gusting 13 17.8
2014-Apr-19 08:44 012 8 gusting 19 17.8
2014-Apr-19 08:34 331 8 gusting 24 17.8
2014-Apr-19 08:24 346 15 gusting 21 17.2
2014-Apr-19 08:14 018 13 gusting 20 17.2
2014-Apr-19 08:04 042 6 gusting 13 16.7
2014-Apr-19 07:54 312 8 gusting 13 16.7
2014-Apr-19 07:45 339 7 gusting 16 16.7
2014-Apr-19 07:34 324 11 gusting 17 16.7
2014-Apr-19 07:24 343 9 gusting 18 16.7
2014-Apr-19 07:14 342 7 gusting 16 16.7
2014-Apr-19 07:05 301 8 gusting 16 16.7
2014-Apr-19 06:54 360 6 gusting 13 16.1
2014-Apr-19 06:44 347 6 gusting 13 16.1
2014-Apr-19 06:35 340 5 gusting 11 16.1
2014-Apr-19 06:24 336 6 gusting 13 15.6
2014-Apr-19 06:14 307 6 gusting 12 15.6
2014-Apr-19 06:04 337 3 gusting 7 15.0
2014-Apr-19 05:54 338 1 gusting 7 15.0
2014-Apr-19 05:44 014 2 gusting 6 15.0
2014-Apr-19 05:34 350 3 gusting 7 15.0
2014-Apr-19 05:24 328 4 gusting 8 15.6
2014-Apr-19 05:14 341 6 gusting 9 15.6
2014-Apr-19 05:04 011 6 gusting 9 15.6
2014-Apr-19 04:54 005 4 gusting 6 15.6
2014-Apr-19 04:44 005 1 gusting 5 15.6
2014-Apr-19 04:34 019 1 gusting 6 15.6
2014-Apr-19 04:24 104 3 gusting 7 15.0
2014-Apr-19 04:14 017 3 gusting 7 15.0
2014-Apr-19 04:04 012 3 gusting 6 14.4
2014-Apr-19 03:54 005 3 gusting 6 14.4
2014-Apr-19 03:44 061 1 gusting 4 14.4
2014-Apr-19 03:34 082 3 gusting 6 14.4
2014-Apr-19 03:24 287 15.0
2014-Apr-19 03:14 288 15.0
2014-Apr-19 03:04 287 15.0
2014-Apr-19 02:54 288 15.0
2014-Apr-19 02:44 261 0 gusting 1 15.0
2014-Apr-19 02:34 261 15.0
2014-Apr-19 02:24 261 15.0
2014-Apr-19 02:14 261 15.0
2014-Apr-19 02:04 229 15.0
2014-Apr-19 01:54 229 15.0
2014-Apr-19 01:44 181 15.0
2014-Apr-19 01:34 181 15.0
2014-Apr-19 01:24 179 15.0
2014-Apr-19 01:14 179 15.0
2014-Apr-19 01:04 179 15.0
2014-Apr-19 00:54 179 15.0
2014-Apr-19 00:44 199 2 gusting 4 15.0
2014-Apr-19 00:34 204 0 gusting 3 15.0
2014-Apr-19 00:24 211 0 gusting 3 15.6
2014-Apr-19 00:14 219 0 gusting 2 15.6
2014-Apr-19 00:04 210 1 gusting 4 15.6
2014-Apr-18 23:54 255 2 gusting 6 15.6
2014-Apr-18 23:44 248 3 gusting 6 15.6
2014-Apr-18 23:34 254 4 gusting 6 15.6
2014-Apr-18 23:24 245 1 gusting 3 16.1
2014-Apr-18 23:14 284 1 gusting 4 16.1
2014-Apr-18 23:04 203 0 gusting 2 16.1
2014-Apr-18 22:54 204 16.1
2014-Apr-18 22:44 202 16.1
2014-Apr-18 22:34 202 16.1
2014-Apr-18 22:24 190 1 gusting 3 16.1
2014-Apr-18 22:14 206 1 gusting 4 16.1
2014-Apr-18 22:04 203 1 gusting 3 16.7
2014-Apr-18 21:54 200 1 gusting 2 16.7
2014-Apr-18 21:44 180 16.7
2014-Apr-18 21:34 180 1 gusting 1 16.7
2014-Apr-18 21:24 180 0 gusting 2 16.7
2014-Apr-18 21:14 190 16.7
2014-Apr-18 21:04 188 16.7
2014-Apr-18 20:54 235 17.2
2014-Apr-18 20:44 235 17.2
2014-Apr-18 20:34 235 17.2
2014-Apr-18 20:24 236 0 gusting 2 17.2
2014-Apr-18 20:14 236 17.8
2014-Apr-18 20:04 236 0 gusting 2 17.8
2014-Apr-18 19:54 234 0 gusting 2 17.8
2014-Apr-18 19:44 233 0 gusting 2 17.8
2014-Apr-18 19:34 221 0 gusting 2 17.8
2014-Apr-18 19:24 220 0 gusting 2 18.3
2014-Apr-18 19:14 190 18.3
2014-Apr-18 19:04 190 18.3
2014-Apr-18 18:54 190 18.3
2014-Apr-18 18:44 190 3 gusting 4 18.9
2014-Apr-18 18:34 207 1 gusting 5 18.9
2014-Apr-18 18:24 209 2 gusting 4 18.9
2014-Apr-18 18:14 190 2 gusting 5 19.4
2014-Apr-18 18:04 155 0 gusting 3 19.4
2014-Apr-18 17:54 190 20.0
2014-Apr-18 17:44 194 1 gusting 5 20.0
2014-Apr-18 17:34 198 2 gusting 5 20.0
2014-Apr-18 17:24 179 3 gusting 6 20.0
2014-Apr-18 17:14 199 3 gusting 6 20.0
2014-Apr-18 17:04 162 2 gusting 6 20.6
2014-Apr-18 16:54 182 3 gusting 6 20.6
2014-Apr-18 16:44 144 3 gusting 7 20.6
2014-Apr-18 16:34 125 4 gusting 6 20.6
2014-Apr-18 16:24 118 3 gusting 7 20.6
2014-Apr-18 16:14 152 2 gusting 6 20.6
2014-Apr-18 16:04 138 5 gusting 9 21.1
2014-Apr-18 15:54 171 4 gusting 6 21.1
2014-Apr-18 15:44 109 2 gusting 6 21.1
2014-Apr-18 15:34 139 2 gusting 8 21.1
2014-Apr-18 15:24 137 2 gusting 4 21.7
2014-Apr-18 15:14 115 3 gusting 7 21.7
2014-Apr-18 15:04 138 6 gusting 8 22.2
2014-Apr-18 14:54 144 6 gusting 12 22.2
2014-Apr-18 14:44 124 3 gusting 11 22.2
2014-Apr-18 14:34 143 7 gusting 12 22.2
2014-Apr-18 14:24 175 6 gusting 9 22.8
2014-Apr-18 14:14 145 5 gusting 12 22.2
2014-Apr-18 14:04 143 6 gusting 11 22.2
2014-Apr-18 13:54 132 6 gusting 10 22.2
2014-Apr-18 13:44 138 5 gusting 8 22.2
2014-Apr-18 13:34 125 2 gusting 9 22.8
2014-Apr-18 13:24 111 2 gusting 7 22.8
2014-Apr-18 13:14 134 2 gusting 6 22.8
2014-Apr-18 13:04 107 3 gusting 8 22.2
2014-Apr-18 12:54 107 2 gusting 6 22.2
2014-Apr-18 12:44 144 4 gusting 8 22.2
2014-Apr-18 12:34 113 2 gusting 6 22.2
2014-Apr-18 12:24 116 2 gusting 10 21.7
2014-Apr-18 12:14 112 4 gusting 8 21.7
2014-Apr-18 12:04 105 4 gusting 8 21.1
2014-Apr-18 11:54 181 2 gusting 7 21.7
2014-Apr-18 11:44 061 2 gusting 6 21.7
2014-Apr-18 11:34 072 2 gusting 4 21.1
2014-Apr-18 11:24 118 0 gusting 5 21.7
2014-Apr-18 11:14 117 3 gusting 6 21.7
2014-Apr-18 11:04 150 2 gusting 6 21.7
2014-Apr-18 10:54 082 2 gusting 6 20.6
2014-Apr-18 10:44 082 3 gusting 6 20.6
2014-Apr-18 10:34 084 2 gusting 6 20.6
2014-Apr-18 10:24 113 2 gusting 6 20.0
2014-Apr-18 10:14 101 1 gusting 4 20.0
2014-Apr-18 10:04 109 1 gusting 4 18.9
2014-Apr-18 09:54 099 1 gusting 5 18.3
2014-Apr-18 09:44 097 2 gusting 5 17.8
2014-Apr-18 09:34 103 2 gusting 6 17.8
2014-Apr-18 09:24 078 2 gusting 6 17.2
2014-Apr-18 09:14 109 4 gusting 6 17.2
2014-Apr-18 09:04 080 3 gusting 6 17.8